When you browse on this site, cookies collect data to enhance your experience and personalize the content and advertising you see.
Visit our Privacy Policy to learn more. By continuing to use the site, you agree to this use of cookies and data.
  • In Schweiz
  • Länderverzeichnis
  • Für 7 Tage
  • Wassertemperatur
  • Satellitenkarten
  • Wetterkarte
  • Widgets
  • user-avatar
    Anmelden

    Stündliche Wetter Tovchenykove

    Heute, 22 April, Montag

    Zeit Temperatur Niederschläge Wind Luftdruck Luftfeuchtigkeit
    00:00 +8°C° 0 mm 2 m/S 752 mmHg 52%
    01:00 +7°C° 0 mm 2 m/S 753 mmHg 53%
    02:00 +7°C° 0 mm 2 m/S 753 mmHg 55%
    03:00 +6°C° 0 mm 2 m/S 753 mmHg 56%
    04:00 +6°C° 0 mm 2 m/S 753 mmHg 58%
    05:00 +5°C° 0 mm 2 m/S 753 mmHg 59%
    06:00 +7°C° 0 mm 2 m/S 754 mmHg 55%
    07:00 +9°C° 0 mm 2 m/S 754 mmHg 52%
    08:00 +12°C° 0 mm 2 m/S 754 mmHg 48%
    09:00 +13°C° 0 mm 2 m/S 754 mmHg 42%
    10:00 +13°C° 0 mm 3 m/S 755 mmHg 36%
    11:00 +14°C° 0 mm 3 m/S 755 mmHg 31%
    12:00 +14°C° 0 mm 3 m/S 755 mmHg 30%
    13:00 +16°C° 0 mm 2 m/S 755 mmHg 30%
    14:00 +16°C° 0 mm 2 m/S 754 mmHg 29%
    15:00 +16°C° 0 mm 2 m/S 754 mmHg 31%
    16:00 +16°C° 0 mm 1 m/S 754 mmHg 33%
    17:00 +15°C° 0 mm 1 m/S 754 mmHg 34%
    18:00 +14°C° 0 mm 1 m/S 754 mmHg 37%
    19:00 +12°C° 0 mm 1 m/S 754 mmHg 40%
    20:00 +10°C° 0 mm 0 m/S 754 mmHg 43%
    21:00 +10°C° 0 mm 1 m/S 755 mmHg 45%
    22:00 +10°C° 0 mm 1 m/S 755 mmHg 46%
    23:00 +9°C° 0 mm 1 m/S 755 mmHg 47%

    Morgen, 23 April, Dienstag

    Zeit Temperatur Niederschläge Wind Luftdruck Luftfeuchtigkeit
    00:00 +8°C° 0 mm 2 m/S 755 mmHg 49%
    01:00 +8°C° 0 mm 2 m/S 755 mmHg 51%
    02:00 +7°C° 0 mm 2 m/S 756 mmHg 52%
    03:00 +7°C° 0 mm 2 m/S 756 mmHg 53%
    04:00 +7°C° 0 mm 2 m/S 756 mmHg 54%
    05:00 +8°C° 0 mm 2 m/S 756 mmHg 54%
    06:00 +9°C° 0 mm 2 m/S 756 mmHg 53%
    07:00 +12°C° 0 mm 2 m/S 756 mmHg 52%
    08:00 +13°C° 0 mm 2 m/S 756 mmHg 50%
    09:00 +15°C° 0 mm 2 m/S 756 mmHg 44%
    10:00 +16°C° 0 mm 2 m/S 756 mmHg 39%
    11:00 +17°C° 0 mm 2 m/S 756 mmHg 33%
    12:00 +17°C° 0 mm 2 m/S 756 mmHg 33%
    13:00 +18°C° 0 mm 1 m/S 756 mmHg 34%
    14:00 +18°C° 0 mm 1 m/S 756 mmHg 34%
    15:00 +18°C° 0 mm 1 m/S 756 mmHg 36%
    16:00 +18°C° 0 mm 1 m/S 756 mmHg 38%
    17:00 +18°C° 0 mm 1 m/S 756 mmHg 39%
    18:00 +16°C° 0 mm 1 m/S 756 mmHg 42%
    19:00 +13°C° 0 mm 0 m/S 756 mmHg 45%
    20:00 +12°C° 0 mm 0 m/S 756 mmHg 48%
    21:00 +11°C° 0 mm 0 m/S 756 mmHg 49%
    22:00 +10°C° 0 mm 0 m/S 756 mmHg 50%
    23:00 +10°C° 0 mm 0 m/S 756 mmHg 52%

    übermorgen, 24 April, Mittwoch

    Zeit Temperatur Niederschläge Wind Luftdruck Luftfeuchtigkeit
    00:00 +9°C° 0 mm 0 m/S 756 mmHg 53%
    01:00 +9°C° 0 mm 0 m/S 756 mmHg 54%
    02:00 +9°C° 0 mm 0 m/S 756 mmHg 55%
    03:00 +9°C° 0 mm 1 m/S 756 mmHg 57%
    04:00 +9°C° 0 mm 1 m/S 756 mmHg 58%
    05:00 +9°C° 0 mm 1 m/S 756 mmHg 60%
    06:00 +11°C° 0 mm 1 m/S 757 mmHg 56%
    07:00 +13°C° 0 mm 1 m/S 757 mmHg 52%
    08:00 +15°C° 0 mm 1 m/S 757 mmHg 49%
    09:00 +16°C° 0 mm 1 m/S 757 mmHg 45%
    10:00 +18°C° 0 mm 1 m/S 757 mmHg 41%
    11:00 +19°C° 0 mm 1 m/S 757 mmHg 37%
    12:00 +20°C° 0 mm 1 m/S 756 mmHg 36%
    13:00 +20°C° 0 mm 1 m/S 756 mmHg 35%
    14:00 +21°C° 0 mm 1 m/S 756 mmHg 35%
    15:00 +21°C° 0 mm 1 m/S 756 mmHg 36%
    16:00 +20°C° 0 mm 1 m/S 756 mmHg 38%
    17:00 +20°C° 0 mm 1 m/S 756 mmHg 39%
    18:00 +18°C° 0 mm 1 m/S 756 mmHg 43%
    19:00 +16°C° 0 mm 1 m/S 756 mmHg 47%
    20:00 +14°C° 0 mm 1 m/S 756 mmHg 50%
    21:00 +14°C° 0 mm 1 m/S 756 mmHg 52%
    22:00 +13°C° 0 mm 1 m/S 756 mmHg 53%
    23:00 +13°C° 0 mm 1 m/S 756 mmHg 54%

    25 April, Donnerstag

    Zeit Temperatur Niederschläge Wind Luftdruck Luftfeuchtigkeit
    00:00 +12°C° 0 mm 1 m/S 756 mmHg 56%
    01:00 +12°C° 0 mm 1 m/S 756 mmHg 57%
    02:00 +11°C° 0 mm 1 m/S 756 mmHg 58%
    03:00 +11°C° 0 mm 1 m/S 756 mmHg 60%
    04:00 +11°C° 0 mm 1 m/S 756 mmHg 61%
    05:00 +10°C° 0 mm 1 m/S 756 mmHg 63%
    06:00 +12°C° 0 mm 1 m/S 756 mmHg 59%
    07:00 +14°C° 0 mm 1 m/S 756 mmHg 55%
    08:00 +16°C° 0 mm 1 m/S 757 mmHg 51%
    09:00 +19°C° 0 mm 1 m/S 756 mmHg 48%
    10:00 +20°C° 0 mm 1 m/S 756 mmHg 45%
    11:00 +22°C° 0 mm 1 m/S 756 mmHg 42%
    12:00 +22°C° 0 mm 1 m/S 756 mmHg 41%
    13:00 +23°C° 0 mm 1 m/S 756 mmHg 40%
    14:00 +21°C° 0 mm 0 m/S 756 mmHg 38%
    15:00 +21°C° 0 mm 0 m/S 755 mmHg 40%
    16:00 +21°C° 0 mm 0 m/S 755 mmHg 41%
    17:00 +21°C° 0 mm 0 m/S 754 mmHg 42%
    18:00 +19°C° 0 mm 0 m/S 754 mmHg 46%
    19:00 +17°C° 0 mm 0 m/S 754 mmHg 51%
    20:00 +15°C° 0 mm 0 m/S 754 mmHg 55%
    21:00 +15°C° 0 mm 0 m/S 754 mmHg 56%
    22:00 +14°C° 0 mm 0 m/S 754 mmHg 58%
    23:00 +14°C° 0 mm 0 m/S 753 mmHg 59%

    26 April, Freitag

    Zeit Temperatur Niederschläge Wind Luftdruck Luftfeuchtigkeit
    00:00 +13°C° 0 mm 0 m/S 753 mmHg 61%
    01:00 +13°C° 0 mm 0 m/S 753 mmHg 63%
    02:00 +12°C° 0 mm 0 m/S 753 mmHg 64%
    03:00 +12°C° 0 mm 0 m/S 753 mmHg 66%
    04:00 +12°C° 0 mm 0 m/S 753 mmHg 67%
    05:00 +12°C° 0 mm 0 m/S 753 mmHg 69%
    06:00 +15°C° 0 mm 1 m/S 753 mmHg 64%
    07:00 +18°C° 0 mm 1 m/S 753 mmHg 59%
    08:00 +20°C° 0 mm 1 m/S 753 mmHg 55%
    09:00 +20°C° 0 mm 2 m/S 752 mmHg 51%
    10:00 +21°C° 0 mm 2 m/S 752 mmHg 46%
    11:00 +22°C° 0 mm 3 m/S 752 mmHg 42%
    12:00 +22°C° 0 mm 3 m/S 752 mmHg 43%
    13:00 +22°C° 0 mm 3 m/S 751 mmHg 43%
    14:00 +22°C° 0 mm 3 m/S 751 mmHg 44%
    15:00 +22°C° 0 mm 3 m/S 750 mmHg 48%
    16:00 +21°C° 0 mm 2 m/S 750 mmHg 51%
    17:00 +21°C° 0 mm 2 m/S 750 mmHg 55%
    18:00 +20°C° 0 mm 2 m/S 750 mmHg 58%
    19:00 +18°C° 0 mm 2 m/S 749 mmHg 61%
    20:00 +17°C° 0 mm 2 m/S 749 mmHg 65%
    21:00 +16°C° 0 mm 2 m/S 749 mmHg 65%
    22:00 +16°C° 0 mm 2 m/S 749 mmHg 66%
    23:00 +15°C° 0 mm 2 m/S 749 mmHg 66%

    27 April, Samstag

    Zeit Temperatur Niederschläge Wind Luftdruck Luftfeuchtigkeit
    00:00 +15°C° 0 mm 2 m/S 749 mmHg 67%
    01:00 +15°C° 0 mm 2 m/S 749 mmHg 68%
    02:00 +14°C° 0 mm 1 m/S 749 mmHg 69%
    03:00 +14°C° 0 mm 1 m/S 749 mmHg 70%
    04:00 +14°C° 0 mm 1 m/S 749 mmHg 71%
    05:00 +13°C° 0 mm 1 m/S 749 mmHg 72%
    06:00 +15°C° 0 mm 1 m/S 749 mmHg 67%
    07:00 +18°C° 0 mm 1 m/S 749 mmHg 62%
    08:00 +19°C° 0 mm 1 m/S 749 mmHg 57%
    09:00 +21°C° 0 mm 1 m/S 749 mmHg 53%
    10:00 +21°C° 0 mm 2 m/S 749 mmHg 48%
    11:00 +23°C° 0 mm 2 m/S 749 mmHg 44%
    12:00 +23°C° 0 mm 1 m/S 749 mmHg 45%
    13:00 +23°C° 0 mm 1 m/S 749 mmHg 45%
    14:00 +22°C° 0 mm 1 m/S 749 mmHg 46%
    15:00 +22°C° 0 mm 1 m/S 749 mmHg 46%
    16:00 +20°C° 0 mm 0 m/S 749 mmHg 46%
    17:00 +20°C° 0 mm 0 m/S 749 mmHg 46%
    18:00 +19°C° 0 mm 0 m/S 749 mmHg 49%
    19:00 +20°C° 0 mm 1 m/S 749 mmHg 52%
    20:00 +19°C° 0 mm 1 m/S 749 mmHg 55%
    21:00 +18°C° 0 mm 1 m/S 749 mmHg 56%
    22:00 +16°C° 0 mm 0 m/S 749 mmHg 58%
    23:00 +15°C° 0 mm 0 m/S 749 mmHg 59%
    Mehr zeigen